When you browse on this site, cookies collect data to enhance your experience and personalize the content and advertising you see.
Visit our Privacy Policy to learn more. By continuing to use the site, you agree to this use of cookies and data.
  • In United Kingdom
  • List of Countries
  • For 7 days
  • Water Temperature
  • Weather Map
  • Weather Widgets
  • user-avatar
    Login

    Hourly Weather Dortmund

    Today, 25 May, Monday

    Time Temperature Precipitation Wind Pressure Humidity
    00:00 +11°C° 0 mm 3 mps 764 mmHg 92%
    01:00 +10°C° 0 mm 3 mps 764 mmHg 92%
    02:00 +10°C° 0 mm 3 mps 764 mmHg 93%
    03:00 +10°C° 0 mm 3 mps 764 mmHg 93%
    04:00 +11°C° 0 mm 3 mps 764 mmHg 91%
    05:00 +12°C° 0 mm 3 mps 765 mmHg 89%
    06:00 +12°C° 0 mm 4 mps 765 mmHg 87%
    07:00 +13°C° 0.1 mm 4 mps 765 mmHg 82%
    08:00 +14°C° 0.1 mm 4 mps 765 mmHg 78%
    09:00 +15°C° 0.1 mm 4 mps 765 mmHg 73%
    10:00 +17°C° 0.2 mm 4 mps 765 mmHg 68%
    11:00 +18°C° 0.2 mm 4 mps 765 mmHg 63%
    12:00 +19°C° 0.2 mm 5 mps 765 mmHg 59%
    13:00 +20°C° 0.1 mm 5 mps 765 mmHg 58%
    14:00 +20°C° 0.1 mm 5 mps 765 mmHg 58%
    15:00 +20°C° 0.1 mm 5 mps 765 mmHg 57%
    16:00 +19°C° 0 mm 4 mps 765 mmHg 61%
    17:00 +18°C° 0 mm 4 mps 766 mmHg 64%
    18:00 +18°C° 0 mm 3 mps 766 mmHg 67%
    19:00 +16°C° 0 mm 3 mps 766 mmHg 73%
    20:00 +13°C° 0 mm 3 mps 767 mmHg 79%
    21:00 +13°C° 0 mm 2 mps 767 mmHg 84%
    22:00 +12°C° 0 mm 2 mps 767 mmHg 85%
    23:00 +11°C° 0 mm 1 mps 767 mmHg 86%

    Tomorrow, 26 May, Tuesday

    Time Temperature Precipitation Wind Pressure Humidity
    00:00 +10°C° 0 mm 1 mps 767 mmHg 87%
    01:00 +10°C° 0 mm 1 mps 767 mmHg 87%
    02:00 +9°C° 0 mm 1 mps 767 mmHg 88%
    03:00 +9°C° 0 mm 1 mps 768 mmHg 88%
    04:00 +10°C° 0 mm 1 mps 768 mmHg 84%
    05:00 +11°C° 0 mm 1 mps 768 mmHg 80%
    06:00 +12°C° 0 mm 1 mps 768 mmHg 77%
    07:00 +14°C° 0 mm 1 mps 768 mmHg 69%
    08:00 +15°C° 0 mm 1 mps 768 mmHg 61%
    09:00 +18°C° 0 mm 1 mps 768 mmHg 54%
    10:00 +18°C° 0 mm 2 mps 768 mmHg 50%
    11:00 +20°C° 0 mm 2 mps 767 mmHg 46%
    12:00 +21°C° 0 mm 2 mps 767 mmHg 42%
    13:00 +21°C° 0 mm 2 mps 767 mmHg 43%
    14:00 +21°C° 0 mm 3 mps 767 mmHg 43%
    15:00 +21°C° 0 mm 3 mps 766 mmHg 44%
    16:00 +21°C° 0 mm 2 mps 766 mmHg 49%
    17:00 +20°C° 0 mm 2 mps 766 mmHg 54%
    18:00 +19°C° 0 mm 2 mps 766 mmHg 59%
    19:00 +18°C° 0 mm 2 mps 766 mmHg 63%
    20:00 +16°C° 0 mm 1 mps 767 mmHg 68%
    21:00 +15°C° 0 mm 1 mps 767 mmHg 72%
    22:00 +14°C° 0 mm 1 mps 767 mmHg 75%
    23:00 +13°C° 0 mm 1 mps 767 mmHg 78%

    Day after tomorrow, 27 May, Wednesday

    Time Temperature Precipitation Wind Pressure Humidity
    00:00 +13°C° 0 mm 1 mps 767 mmHg 81%
    01:00 +12°C° 0 mm 1 mps 767 mmHg 82%
    02:00 +11°C° 0 mm 0 mps 766 mmHg 83%
    03:00 +11°C° 0 mm 0 mps 766 mmHg 84%
    04:00 +12°C° 0 mm 0 mps 766 mmHg 79%
    05:00 +13°C° 0 mm 0 mps 766 mmHg 74%
    06:00 +15°C° 0 mm 0 mps 766 mmHg 70%
    07:00 +18°C° 0 mm 1 mps 766 mmHg 64%
    08:00 +19°C° 0 mm 1 mps 766 mmHg 58%
    09:00 +20°C° 0 mm 2 mps 766 mmHg 52%
    10:00 +20°C° 0 mm 2 mps 766 mmHg 51%
    11:00 +21°C° 0 mm 3 mps 766 mmHg 50%
    12:00 +21°C° 0 mm 3 mps 766 mmHg 50%
    13:00 +21°C° 0 mm 3 mps 765 mmHg 51%
    14:00 +21°C° 0 mm 3 mps 765 mmHg 53%
    15:00 +21°C° 0 mm 3 mps 765 mmHg 54%
    16:00 +20°C° 0.1 mm 3 mps 765 mmHg 60%
    17:00 +19°C° 0.1 mm 3 mps 765 mmHg 66%
    18:00 +18°C° 0.1 mm 4 mps 765 mmHg 71%
    19:00 +16°C° 0 mm 3 mps 765 mmHg 71%
    20:00 +14°C° 0 mm 3 mps 765 mmHg 70%
    21:00 +12°C° 0 mm 3 mps 765 mmHg 69%
    22:00 +11°C° 0 mm 3 mps 765 mmHg 71%
    23:00 +11°C° 0 mm 3 mps 765 mmHg 72%

    28 May, Thursday

    Time Temperature Precipitation Wind Pressure Humidity
    00:00 +10°C° 0 mm 3 mps 765 mmHg 73%
    01:00 +10°C° 0 mm 3 mps 765 mmHg 75%
    02:00 +9°C° 0 mm 3 mps 765 mmHg 78%
    03:00 +9°C° 0 mm 2 mps 765 mmHg 80%
    04:00 +9°C° 0 mm 3 mps 765 mmHg 78%
    05:00 +10°C° 0 mm 3 mps 765 mmHg 76%
    06:00 +10°C° 0 mm 3 mps 765 mmHg 73%
    07:00 +12°C° 0 mm 3 mps 765 mmHg 66%
    08:00 +13°C° 0 mm 3 mps 765 mmHg 59%
    09:00 +16°C° 0 mm 3 mps 764 mmHg 51%
    10:00 +17°C° 0 mm 3 mps 764 mmHg 49%
    11:00 +18°C° 0 mm 3 mps 764 mmHg 47%
    12:00 +19°C° 0 mm 3 mps 763 mmHg 44%
    13:00 +19°C° 0 mm 4 mps 763 mmHg 45%
    14:00 +19°C° 0 mm 4 mps 763 mmHg 46%
    15:00 +19°C° 0 mm 4 mps 762 mmHg 47%
    16:00 +18°C° 0 mm 4 mps 762 mmHg 52%
    17:00 +17°C° 0 mm 4 mps 762 mmHg 57%
    18:00 +15°C° 0 mm 4 mps 762 mmHg 62%
    19:00 +14°C° 0 mm 3 mps 762 mmHg 67%
    20:00 +12°C° 0 mm 3 mps 762 mmHg 72%
    21:00 +10°C° 0 mm 3 mps 762 mmHg 77%
    22:00 +10°C° 0 mm 3 mps 762 mmHg 79%
    23:00 +9°C° 0 mm 2 mps 762 mmHg 81%

    29 May, Friday

    Time Temperature Precipitation Wind Pressure Humidity
    00:00 +8°C° 0 mm 2 mps 762 mmHg 84%
    01:00 +7°C° 0 mm 2 mps 762 mmHg 84%
    02:00 +6°C° 0 mm 2 mps 762 mmHg 85%
    03:00 +6°C° 0 mm 2 mps 762 mmHg 86%
    04:00 +7°C° 0 mm 2 mps 761 mmHg 81%
    05:00 +8°C° 0 mm 2 mps 761 mmHg 76%
    06:00 +9°C° 0 mm 2 mps 761 mmHg 71%
    07:00 +12°C° 0 mm 2 mps 761 mmHg 62%
    08:00 +14°C° 0 mm 2 mps 761 mmHg 54%
    09:00 +16°C° 0 mm 2 mps 761 mmHg 46%
    10:00 +18°C° 0 mm 2 mps 760 mmHg 43%
    11:00 +19°C° 0 mm 2 mps 760 mmHg 40%
    12:00 +20°C° 0 mm 2 mps 759 mmHg 38%
    13:00 +20°C° 0 mm 2 mps 759 mmHg 39%
    14:00 +21°C° 0 mm 3 mps 759 mmHg 41%
    15:00 +21°C° 0 mm 3 mps 758 mmHg 43%
    16:00 +20°C° 0 mm 3 mps 758 mmHg 47%
    17:00 +20°C° 0 mm 3 mps 758 mmHg 52%
    18:00 +19°C° 0 mm 3 mps 758 mmHg 57%
    19:00 +17°C° 0 mm 3 mps 758 mmHg 63%
    20:00 +16°C° 0 mm 2 mps 758 mmHg 70%
    21:00 +14°C° 0 mm 2 mps 758 mmHg 76%
    22:00 +13°C° 0 mm 2 mps 758 mmHg 79%
    23:00 +13°C° 0 mm 2 mps 758 mmHg 81%

    30 May, Saturday

    Time Temperature Precipitation Wind Pressure Humidity
    00:00 +12°C° 0 mm 2 mps 758 mmHg 84%
    01:00 +12°C° 0 mm 1 mps 758 mmHg 84%
    02:00 +12°C° 0 mm 1 mps 758 mmHg 85%
    03:00 +11°C° 0 mm 1 mps 758 mmHg 85%
    04:00 +13°C° 0 mm 1 mps 758 mmHg 81%
    05:00 +14°C° 0 mm 1 mps 758 mmHg 76%
    06:00 +15°C° 0 mm 1 mps 758 mmHg 71%
    07:00 +18°C° 0 mm 1 mps 758 mmHg 64%
    08:00 +20°C° 0 mm 1 mps 758 mmHg 57%
    09:00 +21°C° 0 mm 1 mps 758 mmHg 51%
    10:00 +22°C° 0 mm 1 mps 758 mmHg 48%
    11:00 +23°C° 0 mm 2 mps 757 mmHg 45%
    12:00 +24°C° 0 mm 2 mps 757 mmHg 42%
    13:00 +24°C° 0 mm 2 mps 757 mmHg 42%
    14:00 +24°C° 0 mm 2 mps 757 mmHg 43%
    15:00 +24°C° 0 mm 2 mps 756 mmHg 44%
    16:00 +22°C° 0 mm 3 mps 756 mmHg 48%
    17:00 +21°C° 0 mm 3 mps 756 mmHg 53%
    18:00 +20°C° 0 mm 3 mps 756 mmHg 58%
    19:00 +18°C° 0 mm 3 mps 756 mmHg 65%
    20:00 +17°C° 0 mm 3 mps 757 mmHg 71%
    21:00 +14°C° 0 mm 3 mps 757 mmHg 78%
    22:00 +15°C° 0 mm 2 mps 757 mmHg 79%
    23:00 +14°C° 0 mm 2 mps 757 mmHg 81%
    Show more